Weather in Galitsa

Russia / Tula Oblast     53°07′34″N   37°51′25″E
temp.,
°C
wind,
m/s
gust,
m/s
humid.,
%
clouds,
%
prec.,
mm/h
press.,
hPa
HPBL,
m
15 june, tue
tue1500:00+17n22895 0.0 101515
03:00+16n22915 0.0 101520
06:00+17n24896 0.0 101596
09:00+21nne23755 0.0 1014475
12:00+23nne226876 2.2 1013755
15:00+25n225974 2.5 10121585
18:00+23nnw3477100 0.5 1011236
21:00+19nne1180100 1.4 101111
16 june, wed
wed1600:00+17nw2288100 0.5 101019
03:00+16nnw3392100 0.5 101046
06:00+17nnw359399 0.0 1011146
09:00+21nnw458153 0.0 1012534
12:00+23n56728 1.5 10121066
15:00+23n666611 1.6 10131343
18:00+22nne57790 0.1 1014842
21:00+18nne34900 0.2 101655
17 june, thu
thu1700:00+16nne48940 0.0 1018173
03:00+14nne411900 0.0 1019250
06:00+14nne411810 0.0 1021268
09:00+17ne69650 0.0 1022511
12:00+20ne67570 0.0 10231159
15:00+21ne56580 0.0 10231308
18:00+20ne57720 0.0 1024921
21:00+15ne34845 0.0 102564
18 june, fri
fri1800:00+13ne36820 0.0 1026103
03:00+12ene34876 0.0 102753
06:00+14ene35845 0.0 1028145
09:00+18ene46690 0.0 1028580
12:00+21e45590 0.0 10281321
15:00+22e45580 0.0 10281447
18:00+21e34700 0.0 1027942
21:00+16e33835 0.0 102822
19 june, sat
sat1900:00+14ese22865 0.0 102913
03:00+13se22885 0.0 102910
06:00+15ese22855 0.0 103075
09:00+20ese34723 0.0 1029524
12:00+22sse33610 0.0 10281226
15:00+23sse23593 0.0 10271478
18:00+23se22660 0.0 10261392
21:00+18se22800 0.0 102611